#timestamp,LO_Frequency,Hit,StdDev 
1571324415.4,286046999.4,N
1571324435.2,286047000.7,N
1571324455.1,286046996.6,N
1571324456.0,286046996.6,N
1571324475.8,286046997.2,N
1571324495.7,286046995.4,N
1571324515.5,286046999.0,N
1571324535.3,286047000.4,N
1571324555.2,286047002.8,N
1571324575.0,286047004.0,N
1571324575.9,286047004.0,N
1571324595.7,286047005.9,N
1571324615.6,286047007.3,N
1571324635.4,286047008.0,N
1571324655.3,286047008.1,N
1571324675.1,286047008.8,N
1571324695.8,286047010.7,Y
1571324715.7,286047009.2,P
1571324735.5,286047007.2,N
1571324755.4,286047007.1,N
1571324775.2,286047007.0,N
1571324795.0,286047008.0,Y
1571324795.9,286047008.0,P
1571324815.8,286047003.1,P
1571324835.6,286047003.1,N
1571324855.4,286047005.6,N
1571324875.3,286047005.4,N
1571324895.1,286047005.8,Y
1571324915.9,286046996.5,P
1571324935.7,286046998.6,N
1571324955.5,286046999.4,N
1571324975.4,286046999.3,N
1571324995.2,286046999.4,N
1571325015.1,286047001.1,N
1571325016.0,286047001.1,N
1571325035.8,286047002.8,N
1571325055.6,286047001.6,N
1571325075.5,286047001.9,N
1571325095.3,286047001.8,N
1571325115.1,286047000.0,N
1571325135.9,286047002.7,N
1571325155.7,286047002.2,N
1571325175.6,286047002.4,N
1571325195.4,286046998.1,N
1571325215.2,286046998.2,N
1571325235.1,286046998.1,N
1571325236.0,286046998.1,N
1571325255.8,286047000.9,N
1571325275.6,286046999.8,N
1571325295.5,286047002.8,N
1571325315.3,286047002.8,N
1571325335.2,286047002.4,N
1571325355.9,286047002.7,N
1571325375.7,286047002.1,N
1571325395.6,286047004.2,N
1571325415.4,286047003.6,N
1571325435.2,286047004.0,N
1571325455.1,286047004.1,N
1571325456.0,286047004.1,N
1571325475.8,286047000.6,N
1571325495.7,286047002.4,N
1571325515.5,286047001.4,N
1571325535.3,286047001.4,N
1571325555.2,286047003.8,N
1571325575.0,286047001.6,N
1571325575.9,286047001.6,N
1571325595.8,286047001.8,N
1571325615.6,286047004.4,N
1571325635.4,286047001.7,N
1571325655.3,286047002.0,N
1571325675.1,286047001.1,N
1571325695.8,286047001.2,N
1571325715.7,286047000.0,N
1571325735.5,286047000.5,N
1571325755.4,286047000.6,N
1571325775.2,286046998.6,N
1571325795.0,286046995.7,N
1571325795.9,286046995.7,N
1571325815.8,286046996.1,N
1571325835.6,286046994.9,N
1571325855.5,286046995.5,N
1571325875.3,286046995.2,N
1571325895.1,286046995.5,N
1571325915.9,286046997.5,N
1571325935.7,286046996.9,N
1571325955.5,286046998.8,N
1571325975.4,286046998.6,N
1571325995.2,286047000.6,N
1571326015.1,286046998.1,N
1571326016.0,286046998.1,N
1571326035.8,286046998.2,N
1571326055.6,286047000.5,N
1571326075.5,286047000.5,N
1571326095.3,286046999.5,N
1571326115.1,286046996.9,N
1571326135.9,286046996.7,N
1571326155.7,286046998.5,N
1571326175.6,286046999.8,N
1571326195.4,286047002.3,N
1571326215.2,286047002.7,N
1571326235.1,286047001.3,N
1571326236.0,286047001.3,N
1571326255.8,286046999.8,N
1571326275.7,286047001.6,N
1571326295.5,286047003.6,N
1571326315.3,286047004.7,N
1571326335.2,286047003.7,N
1571326355.0,286047005.1,N
1571326355.9,286047005.1,N
1571326375.7,286047005.8,N
1571326395.6,286047004.3,N
1571326415.4,286047003.7,N
1571326435.3,286047004.0,N
1571326455.1,286047001.4,N
1571326456.0,286047001.4,N
1571326475.8,286047000.5,N
1571326495.7,286047001.2,N
1571326515.5,286046998.7,N
1571326535.3,286046999.0,N
1571326555.2,286046998.7,N
1571326575.0,286046999.2,N
1571326575.9,286046999.2,N
1571326595.8,286046998.4,N
1571326615.6,286046998.8,N
1571326635.4,286047002.6,N
1571326655.3,286047002.0,N
1571326675.1,286047002.6,N
1571326695.9,286046999.1,N
1571326715.7,286046998.5,N
1571326735.5,286046998.6,N
1571326755.4,286046998.3,N
1571326775.2,286046998.5,N
1571326795.0,286047002.7,N
1571326795.9,286047002.7,N
1571326815.8,286047002.3,N
1571326835.6,286047000.6,N
1571326855.5,286046996.7,N
1571326875.3,286046995.2,N
1571326895.1,286046994.5,N
1571326915.9,286046993.9,N
1571326935.7,286046992.5,N
1571326955.6,286046988.8,Y
1571326975.4,286046987.7,P
1571326995.2,286046987.5,N
1571327015.1,286046985.6,N
1571327016.0,286046985.6,N
1571327035.8,286046987.1,N
1571327055.6,286046987.6,N
1571327075.5,286046987.7,N
1571327095.2,286046986.4,Y
1571327115.9,286046998.5,P
1571327135.7,286047001.2,N
1571327155.6,286047001.2,N
1571327175.4,286046998.4,N
1571327195.3,286046998.5,N
1571327215.1,286046998.5,N
1571327216.0,286046998.5,N
1571327235.8,286046998.8,N
1571327255.7,286046999.3,N
1571327275.5,286046996.8,N
1571327295.3,286046999.0,N
1571327315.2,286046999.1,N
1571327335.0,286046999.6,N
1571327335.9,286046999.6,N
1571327355.8,286046995.6,N
1571327375.6,286046996.3,N
1571327395.4,286046994.7,N
1571327415.3,286046992.1,N
1571327435.1,286046995.9,N
1571327455.8,286046994.4,N
1571327475.7,286046996.0,N
1571327495.5,286046993.7,N
1571327515.4,286046995.0,N
1571327535.2,286046995.0,N
1571327555.0,286046995.9,N
1571327555.9,286046995.9,N
1571327575.8,286046994.2,N
1571327595.6,286046994.4,N
1571327615.4,286046994.4,N
1571327635.3,286046992.0,N
1571327655.1,286046994.9,N
1571327675.9,286046997.8,N
1571327695.7,286046996.3,N
1571327715.5,286046996.2,N
1571327735.4,286046997.8,N
1571327755.2,286046998.3,N
1571327775.1,286046996.8,N
1571327776.0,286046996.8,N
1571327795.8,286046995.0,N
1571327815.6,286046997.9,N
1571327835.5,286046998.8,N
1571327855.3,286046997.5,N
1571327875.2,286046997.1,N
1571327895.9,286046996.5,N
1571327915.7,286046995.3,N
1571327935.6,286046993.8,Y
1571327955.4,286047002.2,P
1571327975.2,286047004.2,N
1571327995.1,286047001.9,N
1571327996.0,286047001.9,N
